Home > Time Zones > World Clock > Weather > Japan > Naha > Past weeks

Flag for Japan Weather past 2 weeks in Naha, Okinawa, Japan

Now
64 °F

Partly cloudy.


Feels Like: 64 °F
Forecast: 65 / 72 °F
Wind: 13 mph from East

Location: Naha Airport

Current Time: Feb 28, 2015 at 6:42:22 AM

Latest Report: Feb 28, 2015 at 6:00 AM


Visibility: N/A

Pressure: 30.07 "Hg

Humidity: 83%

Dew point: 59 °F

Location of NahaLocation

Historic Weather in Naha — Graph

°F

Naha temperature yesterday

Maximum temperature yesterday: 70 °F (at 12:30 AM)
Minimum temperature yesterday: 64 °F (at 6:00 AM)
Average temperature yesterday: 67 °F

Past Weeks' High & Low Weather Summary

 TemperatureHumidityPressure
High75 °F (Feb 26, 10:30 AM)94% (Feb 23, 4:30 AM)30.24 "Hg (Feb 23, 4:30 AM)
Low55 °F (Feb 14, 1:00 AM)37% (Feb 13, 12:30 PM)29.86 "Hg (Feb 24, 3:30 PM)
Average65 °F66%30.07 "Hg
* Reported Feb 13 5:00 AM — Feb 28 5:00 AM, Naha, Weather by CustomWeather, © 2015

Note: Actual official high and low records may vary slightly from our data, if they occured in-between our weather recording intervals... More about our weather records

Advertising

Naha weather history for previous 24 hours

 ConditionsComfort  
Time TempWeatherWind HumidityBarometerVisibility
5:00 AM
Sat, Feb 28
66 °FPartly cloudy.12 mph78%30.07 "HgN/A
4:30 AM66 °FPartly cloudy.9 mph73%30.07 "HgN/A
4:00 AM66 °FPartly cloudy.13 mph73%30.07 "HgN/A
3:30 AM66 °FPartly cloudy.10 mph73%30.07 "HgN/A
3:00 AM64 °FPartly cloudy.10 mph78%30.07 "HgN/A
2:30 AM64 °FPartly cloudy.9 mph78%30.07 "HgN/A
2:00 AM64 °FPartly cloudy.10 mph78%30.07 "HgN/A
1:30 AM64 °FPartly cloudy.13 mph78%30.07 "HgN/A
1:00 AM64 °FPassing clouds.14 mph78%30.07 "HgN/A
12:30 AM63 °FPartly cloudy.10 mph83%30.09 "HgN/A
12:00 AM63 °FLight rain. Partly cloudy.10 mph83%30.12 "Hg5 mi
11:30 PM
Fri, Feb 27
64 °FPartly cloudy.12 mph78%30.12 "HgN/A
11:00 PM64 °FPassing clouds.15 mph73%30.12 "HgN/A
10:30 PM66 °FPartly cloudy.15 mph68%30.12 "HgN/A
10:00 PM66 °FPassing clouds.13 mph68%30.09 "HgN/A
9:30 PM66 °FPassing clouds.12 mph68%30.07 "HgN/A
9:00 PM66 °FPassing clouds.14 mph68%30.09 "HgN/A
8:30 PM64 °FPassing clouds.16 mph73%30.09 "HgN/A
8:00 PM66 °FPassing clouds.14 mph68%30.09 "HgN/A
7:30 PM66 °FPassing clouds.14 mph68%30.07 "HgN/A
7:00 PM66 °FScattered showers. Passing clouds.10 mph68%30.07 "HgN/A
6:30 PM66 °FPassing clouds.14 mph68%30.07 "HgN/A
6:00 PM66 °FPartly sunny.15 mph68%30.04 "HgN/A
5:30 PM66 °FPartly sunny.15 mph68%30.04 "HgN/A
5:00 PM66 °FPartly sunny.14 mph68%30.04 "HgN/A
4:30 PM66 °FPartly sunny.10 mph68%30.04 "HgN/A
4:00 PM66 °FPartly sunny.14 mph68%30.01 "HgN/A
3:30 PM68 °FPartly sunny.14 mph69%30.04 "HgN/A
3:00 PM68 °FPartly sunny.13 mph64%30.04 "HgN/A
2:30 PM68 °FPartly sunny.14 mph69%30.04 "HgN/A
2:00 PM68 °FPartly sunny.13 mph69%30.04 "HgN/A
1:30 PM68 °FPartly sunny.10 mph69%30.07 "HgN/A
1:00 PM68 °FPartly sunny.14 mph69%30.07 "HgN/A
12:30 PM68 °FPartly sunny.14 mph69%30.09 "HgN/A
12:00 PM68 °FPartly sunny.14 mph69%30.09 "HgN/A
11:30 AM66 °FBroken clouds.14 mph78%30.12 "HgN/A
11:00 AM66 °FPartly sunny.12 mph78%30.12 "HgN/A
10:30 AM66 °FPartly sunny.12 mph78%30.12 "HgN/A
10:00 AM66 °FPartly sunny.10 mph78%30.12 "HgN/A
9:30 AM66 °FPartly sunny.12 mph73%30.12 "HgN/A
9:00 AM68 °FPartly sunny.10 mph73%30.09 "HgN/A
8:30 AM66 °FBroken clouds.12 mph78%30.09 "HgN/A
8:00 AM66 °FBroken clouds.10 mph78%30.09 "HgN/A
7:30 AM66 °FPartly sunny.10 mph73%30.09 "HgN/A
7:00 AM66 °FBroken clouds.8 mph73%30.09 "HgN/A
6:30 AM66 °FPartly cloudy.8 mph73%30.07 "HgN/A
6:00 AM64 °FPassing clouds.9 mph83%30.07 "HgN/A
Weather by CustomWeather, © 2015

See weather overviewHow to use our weather pages